TimeCST,TemperatureF,Dew PointF,Humidity,Sea Level PressureIn,VisibilityMPH,Wind Direction,Wind SpeedMPH,Gust SpeedMPH,PrecipitationIn,Events,Conditions,WindDirDegrees,DateUTC
12:53 AM,36.0,33.1,89,30.04,10.0,SE,5.8,-,N/A,,Clear,140,2012-11-09 06:53:00
1:53 AM,36.0,33.1,89,30.04,9.0,SE,5.8,-,N/A,,Clear,130,2012-11-09 07:53:00
2:53 AM,36.0,33.1,89,30.03,9.0,ESE,5.8,-,N/A,,Clear,120,2012-11-09 08:53:00
3:53 AM,35.1,32.0,89,30.04,8.0,ESE,4.6,-,N/A,,Clear,110,2012-11-09 09:53:00
4:53 AM,34.0,32.0,92,30.05,7.0,Calm,Calm,-,N/A,,Clear,0,2012-11-09 10:53:00
5:53 AM,34.0,32.0,92,30.05,7.0,Calm,Calm,-,N/A,,Clear,0,2012-11-09 11:53:00
6:53 AM,34.0,32.0,92,30.07,7.0,Calm,Calm,-,N/A,,Overcast,0,2012-11-09 12:53:00
7:53 AM,37.0,35.1,93,30.07,5.0,Calm,Calm,-,N/A,,Overcast,0,2012-11-09 13:53:00
8:53 AM,37.9,35.1,89,30.08,6.0,Calm,Calm,-,N/A,,Overcast,0,2012-11-09 14:53:00
9:53 AM,39.9,37.0,89,30.08,6.0,Calm,Calm,-,N/A,,Overcast,0,2012-11-09 15:53:00
10:53 AM,42.1,37.0,82,30.06,7.0,Calm,Calm,-,N/A,,Overcast,0,2012-11-09 16:53:00
11:53 AM,45.0,37.9,76,30.04,8.0,East,4.6,-,N/A,,Overcast,80,2012-11-09 17:53:00
12:53 PM,48.0,37.9,68,30.01,8.0,East,9.2,-,N/A,,Scattered Clouds,80,2012-11-09 18:53:00
1:53 PM,50.0,39.0,66,29.99,8.0,East,9.2,-,N/A,,Clear,80,2012-11-09 19:53:00
2:53 PM,51.1,39.0,63,29.98,8.0,NE,5.8,-,N/A,,Clear,50,2012-11-09 20:53:00
3:53 PM,50.0,37.9,63,29.97,8.0,ENE,8.1,-,N/A,,Clear,60,2012-11-09 21:53:00
4:53 PM,48.9,37.9,66,29.98,9.0,East,8.1,18.4,N/A,,Overcast,80,2012-11-09 22:53:00
5:53 PM,48.0,37.9,68,29.99,9.0,ENE,6.9,-,N/A,,Overcast,70,2012-11-09 23:53:00
6:53 PM,48.0,37.9,68,30.00,9.0,East,8.1,-,N/A,,Overcast,100,2012-11-10 00:53:00
7:53 PM,48.0,37.9,68,30.01,8.0,East,5.8,-,N/A,,Overcast,100,2012-11-10 01:53:00
8:53 PM,46.9,39.0,74,30.01,7.0,ESE,6.9,-,N/A,,Overcast,120,2012-11-10 02:53:00
9:00 PM,46.4,39.2,76,29.99,6.0,ESE,6.9,-,N/A,,Haze,110,2012-11-10 03:00:00
9:53 PM,48.0,39.9,74,30.01,5.0,SE,6.9,-,N/A,,Haze,140,2012-11-10 03:53:00
10:28 PM,46.4,39.2,76,29.95,5.0,East,13.8,24.2,N/A,,Haze,90,2012-11-10 04:28:00
10:42 PM,46.4,41.0,81,29.98,5.0,ENE,10.4,-,0.00,Rain,Light Rain,70,2012-11-10 04:42:00
10:53 PM,46.9,41.0,80,29.99,5.0,ENE,10.4,-,0.00,Rain,Light Rain,70,2012-11-10 04:53:00
11:53 PM,46.9,42.1,83,29.99,4.0,East,9.2,17.3,0.00,Rain,Light Rain,80,2012-11-10 05:53:00